Juneau, AK

3:36 PM AKDT on July 27, 2017 (GMT -0800)
Juneau International

Weather History for PAJN - December, 2012

Change the Weather History Date:

Sunday, December 2, 2012

  Actual Average Record
Temperature  
Mean Temperature 15 °F 31 °F  
Max Temperature 16 °F 35 °F 49 °F (1963)
Min Temperature 14 °F 27 °F -6 °F (1970)
Degree Days  
Heating Degree Days 50 34  
Month to date heating degree days 99 68  
Since 1 July heating degree days 3040 2699  
Moisture  
Dew Point 11 °F    
Average Humidity 84    
Maximum Humidity 88    
Minimum Humidity 80    
Precipitation  
Precipitation 0.31 in 0.21 in 2.09 in (1997)
Month to date precipitation 0.39 0.41  
Year to date precipitation 58.89 56.84  
Snow  
Snow 5.00 in 0.50 in 9.30 in (2006)
Month to date snowfall 6.3 1.0  
Since 1 July snowfall 23.3 14.9  
Snow Depth 7.00 in    
Sea Level Pressure  
Sea Level Pressure 29.31 in    
Wind  
Wind Speed 1 mph (ENE)    
Max Wind Speed 6 mph    
Max Gust Speed 7 mph    
Visibility 2 miles    
Events Snow    
T = Trace of Precipitation, MM = Missing Value Source: NWS Daily Summary

Daily Weather History Graph

Daily Weather History Graph

Search for Another Location

Airport or City:

Trip Planner

Search our weather history database for the weather conditions in past years. The results will help you decide how hot, cold, wet, or windy it might be!

Date:

Astronomy

Dec. 02, 2012 Rise Set
Actual Time 8:23 AM AKST 3:12 PM AKST
Civil Twilight 7:33 AM AKST 4:02 PM AKST
Nautical Twilight 6:41 AM AKST 4:54 PM AKST
Astronomical Twilight 5:53 AM AKST 5:42 PM AKST
Moon 7:34 PM AKST (12/2) 10:54 AM AKST (12/2)
Length of Visible Light 8h 29m
Length of Day
6h 48m
Waning Gibbous, 84% of the Moon is Illuminated
Dec 2
Waning Gibbous
Dec 6
Last Quarter
Dec 12
New
Dec 19
First Quarter
Dec 28
Full

Hourly Weather History & Observations

Time (AKST) Temp. Windchill Dew Point Humidity Pressure Visibility Wind Dir Wind Speed Gust Speed Precip Events Conditions
12:33 AM 15.8 °F 10.2 °F 10.4 °F 79% 29.35 in 1.5 mi East 3.5 mph - 0.01 in Snow Light Snow
12:53 AM 15.1 °F - 10.9 °F 84% 29.35 in 1.0 mi Calm Calm - 0.02 in Snow Light Snow
1:53 AM 15.1 °F - 10.9 °F 84% 29.34 in 1.0 mi Calm Calm - 0.02 in Snow Light Snow
3:53 AM 15.1 °F - 10.9 °F 84% 29.32 in 1.2 mi Calm Calm - 0.02 in Snow Light Snow
4:53 AM 15.1 °F - 12.0 °F 88% 29.31 in 1.0 mi Calm Calm - 0.02 in Snow Light Snow
5:53 AM 15.1 °F - 10.9 °F 84% 29.31 in 1.5 mi Calm Calm - 0.01 in Snow Light Snow
6:12 AM 15.8 °F 10.2 °F 10.4 °F 79% 29.30 in 1.5 mi East 3.5 mph - 0.00 in Snow Light Snow
6:53 AM 14.0 °F 6.5 °F 10.9 °F 88% 29.30 in 2.0 mi ENE 4.6 mph - 0.01 in Snow Light Snow
7:53 AM 15.1 °F - 10.9 °F 84% 29.30 in 1.5 mi Calm Calm - 0.01 in Snow Light Snow
8:53 AM 15.1 °F 9.4 °F 10.9 °F 84% 29.30 in 1.5 mi East 3.5 mph - 0.01 in Snow Light Snow
9:30 AM 15.8 °F 10.2 °F 10.4 °F 79% 29.30 in 2.0 mi ENE 3.5 mph - 0.01 in Snow Light Snow
9:53 AM 15.1 °F - 10.9 °F 84% 29.30 in 2.0 mi Calm Calm - 0.01 in Snow Light Snow
10:20 AM 15.8 °F - 10.4 °F 79% 29.30 in 2.0 mi Calm Calm - 0.00 in Snow Light Snow
10:53 AM 15.1 °F - 10.9 °F 84% 29.30 in 2.0 mi Calm Calm - 0.01 in Snow Light Snow
11:53 AM 15.1 °F - 10.9 °F 84% 29.30 in 2.0 mi Calm Calm - 0.00 in Snow Light Snow
12:53 PM 16.0 °F - 10.9 °F 81% 29.30 in 3.0 mi Calm Calm - 0.01 in Snow Light Snow
1:31 PM 15.8 °F - 10.4 °F 79% 29.29 in 1.5 mi Calm Calm - 0.00 in Snow Light Snow
1:38 PM 15.8 °F - 10.4 °F 79% 29.29 in 1.5 mi Calm Calm - 0.00 in Snow Light Snow
1:53 PM 16.0 °F - 10.9 °F 81% 29.29 in 1.5 mi Calm Calm - 0.01 in Snow Light Snow
2:53 PM 16.0 °F - 10.9 °F 81% 29.30 in 0.8 mi Calm Calm - 0.02 in Snow Light Snow
3:05 PM 15.8 °F - 10.4 °F 79% 29.30 in 1.0 mi Calm Calm - 0.00 in Snow Light Snow
3:53 PM 16.0 °F - 10.9 °F 81% 29.29 in 1.0 mi Calm Calm - 0.01 in Snow Light Snow
4:35 PM 15.8 °F - 10.4 °F 79% 29.29 in 3.0 mi Calm Calm - 0.00 in Snow Light Snow
4:53 PM 16.0 °F - 10.9 °F 81% 29.30 in 3.0 mi Calm Calm - 0.00 in Snow Light Snow
5:53 PM 16.0 °F - 10.9 °F 81% 29.31 in 2.5 mi Calm Calm - 0.00 in Snow Light Snow
6:53 PM 16.0 °F - 12.9 °F 88% 29.31 in 2.0 mi Calm Calm - 0.01 in Snow Light Snow
7:31 PM 15.8 °F - 12.2 °F 86% 29.31 in 2.0 mi Calm Calm - 0.01 in Snow Light Snow
7:53 PM 16.0 °F - 12.9 °F 88% 29.31 in 1.5 mi Calm Calm - 0.02 in Snow Light Snow
8:18 PM 15.8 °F - 12.2 °F 86% 29.32 in 1.0 mi Calm Calm - 0.01 in Snow Light Snow
8:53 PM 15.1 °F 9.4 °F 12.0 °F 88% 29.32 in 1.0 mi ENE 3.5 mph - 0.02 in Snow Light Snow
9:42 PM 15.8 °F 7.2 °F 10.4 °F 79% 29.33 in 2.0 mi East 5.8 mph - 0.02 in Snow Light Snow
9:53 PM 15.1 °F 7.7 °F 10.9 °F 84% 29.34 in 2.5 mi ENE 4.6 mph - 0.02 in Snow Light Snow
10:53 PM 15.1 °F - 10.9 °F 84% 29.35 in 2.5 mi Calm Calm - 0.01 in Snow Light Snow
11:53 PM 15.1 °F 7.7 °F 12.0 °F 88% 29.36 in 1.2 mi ENE 4.6 mph - 0.02 in Snow Light Snow